This demonstration page uses our WeatherBlox Daily Observations layout. Learn more.

Left ArrowRight Arrow

40.97296, -117.73568

Hourly Observations for August 16, 2016

Temp ( °F °C ) Dew Point ( °F °C ) Humidity (%) Winds ( mph kmh ) Pressure ( in mb ) Visibility ( mi km ) Precip ( " mm )
12:56 am 00:56 Clear 78 25.6 33 0.6 19 19 NE 13 20 29.86 1011 10 16 0.00 0.00
1:56 am 01:56 Clear 75 23.9 33 0.6 22 22 NE 13 20 29.86 1011 10 16 0.00 0.00
2:56 am 02:56 Clear 64 17.8 31 -0.6 29 29 VRB 3 6 29.88 1012 10 16 0.00 0.00
3:56 am 03:56 Clear 58 14.4 31 -0.6 36 36 SSE 9 15 29.90 1012 10 16 0.00 0.00
4:56 am 04:56 Clear 57 13.9 30 -1.1 36 36 SSE 7 11 29.89 1012 10 16 0.00 0.00
5:56 am 05:56 Clear 55 12.8 30 -1.1 38 38 Calm 29.91 1013 10 16 0.00 0.00
6:56 am 06:56 Sunny 57 13.9 31 -0.6 37 37 Calm 29.93 1013 10 16 0.00 0.00
7:56 am 07:56 Sunny 68 20 33 0.6 27 27 Calm 29.94 1014 10 16 0.00 0.00
8:56 am 08:56 Sunny 74 23.3 35 1.7 24 24 Calm 29.94 1014 10 16 0.00 0.00
9:56 am 09:56 Sunny 82 27.8 34 1.1 18 18 ENE 5 7 29.91 1013 10 16 0.00 0.00
10:56 am 10:56 Sunny 89 31.7 36 2.2 15 15 Calm 29.90 1012 10 16 0.00 0.00
11:56 am 11:56 Sunny 93 33.9 33 0.6 12 12 undefined N/A 29.87 1012 10 16 0.00 0.00
12:56 pm 12:56 Sunny 96 35.6 31 -0.6 10 10 VRB 3 6 29.83 1010 10 16 0.00 0.00
1:56 pm 13:56 Sunny 97 36.1 26 -3.3 8 8 ENE 8 13 29.82 1010 10 16 0.00 0.00
2:56 pm 14:56 Sunny 97 36.1 29 -1.7 9 9 NW 9 15 29.82 1010 10 16 0.00 0.00
3:56 pm 15:56 Sunny 95 35 29 -1.7 9 9 undefined N/A 29.82 1010 10 16 0.00 0.00
4:56 pm 16:56 Sunny 93 33.9 28 -2.2 10 10 WNW 5 7 29.81 1010 10 16 0.00 0.00
5:56 pm 17:56 Sunny 94 34.4 28 -2.2 9 9 N 6 9 29.82 1010 10 16 0.00 0.00
6:18 pm 18:18 Sunny 91 32.8 32 0 12 12 NNW 20 31 29.59 1002 10 16 0.00 0.00
6:56 pm 18:56 Sunny 88 31.1 32 0 13 13 NW 15 24 29.85 1011 10 16 0.00 0.00
7:38 pm 19:38 Partly Cloudy with Nearby Thunderstorms 85 29.4 38 3.3 19 19 WNW 13 20 29.65 1004 10 16 0.00 0.03
7:56 pm 19:56 Mostly Clear 85 29.4 36 2.2 17 17 N 13 20 29.86 1011 10 16 0.00 0.03
8:56 pm 20:56 Mostly Clear 84 28.9 35 1.7 17 17 N 14 22 29.87 1012 10 16 0.00 0.03
9:56 pm 21:56 Clear 81 27.2 37 2.8 21 21 NE 14 22 29.88 1012 10 16 0.00 0.00
10:56 pm 22:56 Clear 80 26.7 38 3.3 22 22 NE 13 20 29.87 1012 10 16 0.00 0.00
11:56 pm 23:56 Clear 80 26.7 39 3.9 23 23 NE 14 22 29.85 1011 10 16 0.00 0.00

Powered by AerisWeather